Year,Month,Day,Hour,Minute,Value (Times are PST for temperature in C)
2007,04,12,00,00,7.00
2007,04,12,00,01,6.90
2007,04,12,00,02,6.90
2007,04,12,00,03,6.80
2007,04,12,00,04,6.80
2007,04,12,00,05,6.80
2007,04,12,00,06,6.70
2007,04,12,00,07,6.70
2007,04,12,00,08,6.60
2007,04,12,00,09,6.60
2007,04,12,00,10,6.60
2007,04,12,00,11,6.50
2007,04,12,00,12,6.40
2007,04,12,00,13,6.40
2007,04,12,00,14,6.40
2007,04,12,00,15,6.40
2007,04,12,00,16,6.40
2007,04,12,00,17,6.40
2007,04,12,00,18,6.40
2007,04,12,00,19,6.40
2007,04,12,00,20,6.40
2007,04,12,00,21,6.40
2007,04,12,00,22,6.40
2007,04,12,00,23,6.40
2007,04,12,00,24,6.40
2007,04,12,00,25,6.40
2007,04,12,00,26,6.40
2007,04,12,00,27,6.40
2007,04,12,00,28,6.40
2007,04,12,00,29,6.40
2007,04,12,00,30,6.40
2007,04,12,00,31,6.40
2007,04,12,00,32,6.40
2007,04,12,00,33,6.30
2007,04,12,00,34,6.30
2007,04,12,00,35,6.30
2007,04,12,00,36,6.30
2007,04,12,00,37,6.30
2007,04,12,00,38,6.20
2007,04,12,00,39,6.20
2007,04,12,00,40,6.20
2007,04,12,00,41,6.20
2007,04,12,00,42,6.20
2007,04,12,00,43,6.20
2007,04,12,00,44,6.10
2007,04,12,00,45,6.10
2007,04,12,00,46,6.10
2007,04,12,00,47,6.10
2007,04,12,00,48,6.10
2007,04,12,00,49,6.10
2007,04,12,00,50,6.10
2007,04,12,00,51,6.10
2007,04,12,00,52,6.00
2007,04,12,00,53,6.00
2007,04,12,00,54,6.00
2007,04,12,00,55,6.00
2007,04,12,00,56,6.00
2007,04,12,00,57,6.00
2007,04,12,00,58,6.00
2007,04,12,00,59,6.00
2007,04,12,01,00,6.00
2007,04,12,01,01,6.00
2007,04,12,01,02,6.00
2007,04,12,01,03,6.00
2007,04,12,01,04,6.00
2007,04,12,01,05,6.00
2007,04,12,01,06,6.00
2007,04,12,01,07,6.00
2007,04,12,01,08,6.00
2007,04,12,01,09,6.00
2007,04,12,01,10,6.00
2007,04,12,01,11,5.90
2007,04,12,01,12,5.90
2007,04,12,01,13,5.90
2007,04,12,01,14,5.80
2007,04,12,01,15,5.80
2007,04,12,01,16,5.70
2007,04,12,01,17,5.70
2007,04,12,01,18,5.70
2007,04,12,01,19,5.70
2007,04,12,01,20,5.60
2007,04,12,01,21,5.60
2007,04,12,01,22,5.60
2007,04,12,01,23,5.50
2007,04,12,01,24,5.50
2007,04,12,01,25,5.50
2007,04,12,01,26,5.50
2007,04,12,01,27,5.50
2007,04,12,01,28,5.50
2007,04,12,01,29,5.50
2007,04,12,01,30,5.50
2007,04,12,01,31,5.50
2007,04,12,01,32,5.50
2007,04,12,01,33,5.40
2007,04,12,01,34,5.40
2007,04,12,01,35,5.40
2007,04,12,01,36,5.30
2007,04,12,01,37,5.30
2007,04,12,01,38,5.30
2007,04,12,01,39,5.30
2007,04,12,01,40,5.20
2007,04,12,01,41,5.20
2007,04,12,01,42,5.20
2007,04,12,01,43,5.10
2007,04,12,01,44,5.10
2007,04,12,01,45,5.10
2007,04,12,01,46,5.10
2007,04,12,01,47,5.10
2007,04,12,01,48,5.00
2007,04,12,01,49,4.90
2007,04,12,01,50,4.90
2007,04,12,01,51,4.90
2007,04,12,01,52,4.80
2007,04,12,01,53,4.80
2007,04,12,01,54,4.80
2007,04,12,01,55,4.70
2007,04,12,01,56,4.70
2007,04,12,01,57,4.60
2007,04,12,01,58,4.60
2007,04,12,01,59,4.60
2007,04,12,02,00,4.50
2007,04,12,02,01,4.50
2007,04,12,02,02,4.50
2007,04,12,02,03,4.40
2007,04,12,02,04,4.40
2007,04,12,02,05,4.30
2007,04,12,02,06,4.30
2007,04,12,02,07,4.30
2007,04,12,02,08,4.30
2007,04,12,02,09,4.30
2007,04,12,02,10,4.30
2007,04,12,02,11,4.30
2007,04,12,02,12,4.30
2007,04,12,02,13,4.30
2007,04,12,02,14,4.40
2007,04,12,02,15,4.40
2007,04,12,02,16,4.40
2007,04,12,02,17,4.40
2007,04,12,02,18,4.40
2007,04,12,02,19,4.40
2007,04,12,02,20,4.40
2007,04,12,02,21,4.40
2007,04,12,02,22,4.50
2007,04,12,02,23,4.50
2007,04,12,02,24,4.50
2007,04,12,02,25,4.40
2007,04,12,02,26,4.40
2007,04,12,02,27,4.40
2007,04,12,02,28,4.40
2007,04,12,02,29,4.40
2007,04,12,02,30,4.30
2007,04,12,02,31,4.30
2007,04,12,02,32,4.30
2007,04,12,02,33,4.30
2007,04,12,02,34,4.20
2007,04,12,02,35,4.20
2007,04,12,02,36,4.20
2007,04,12,02,37,4.20
2007,04,12,02,38,4.20
2007,04,12,02,39,4.20
2007,04,12,02,40,4.20
2007,04,12,02,41,4.20
2007,04,12,02,42,4.30
2007,04,12,02,43,4.30
2007,04,12,02,44,4.30
2007,04,12,02,45,4.20
2007,04,12,02,46,4.20
2007,04,12,02,47,4.20
2007,04,12,02,48,4.20
2007,04,12,02,49,4.20
2007,04,12,02,50,4.20
2007,04,12,02,51,4.20
2007,04,12,02,52,4.20
2007,04,12,02,53,4.20
2007,04,12,02,54,4.20
2007,04,12,02,55,4.20
2007,04,12,02,56,4.20
2007,04,12,02,57,4.20
2007,04,12,02,58,4.20
2007,04,12,02,59,4.20
2007,04,12,03,00,4.20
2007,04,12,03,01,4.20
2007,04,12,03,02,4.20
2007,04,12,03,03,4.20
2007,04,12,03,04,4.20
2007,04,12,03,05,4.20
2007,04,12,03,06,4.20
2007,04,12,03,07,4.20
2007,04,12,03,08,4.20
2007,04,12,03,09,4.10
2007,04,12,03,10,4.10
2007,04,12,03,11,4.10
2007,04,12,03,12,4.10
2007,04,12,03,13,4.10
2007,04,12,03,14,4.10
2007,04,12,03,15,4.10
2007,04,12,03,16,4.00
2007,04,12,03,17,4.00
2007,04,12,03,18,4.00
2007,04,12,03,19,4.00
2007,04,12,03,20,4.00
2007,04,12,03,21,4.00
2007,04,12,03,22,3.90
2007,04,12,03,23,3.90
2007,04,12,03,24,3.90
2007,04,12,03,25,3.90
2007,04,12,03,26,3.90
2007,04,12,03,27,3.80
2007,04,12,03,28,3.80
2007,04,12,03,29,3.80
2007,04,12,03,30,3.80
2007,04,12,03,31,3.80
2007,04,12,03,32,3.90
2007,04,12,03,33,3.90
2007,04,12,03,34,3.90
2007,04,12,03,35,3.90
2007,04,12,03,36,3.90
2007,04,12,03,37,3.90
2007,04,12,03,38,3.80
2007,04,12,03,39,3.80
2007,04,12,03,40,3.80
2007,04,12,03,41,3.80
2007,04,12,03,42,3.80
2007,04,12,03,43,3.80
2007,04,12,03,44,3.80
2007,04,12,03,45,3.80
2007,04,12,03,46,3.80
2007,04,12,03,47,3.80
2007,04,12,03,48,3.80
2007,04,12,03,49,3.80
2007,04,12,03,50,3.80
2007,04,12,03,51,3.80
2007,04,12,03,52,3.80
2007,04,12,03,53,3.80
2007,04,12,03,54,3.80
2007,04,12,03,55,3.80
2007,04,12,03,56,3.80
2007,04,12,03,57,3.80
2007,04,12,03,58,3.80
2007,04,12,03,59,3.80
2007,04,12,04,00,3.80
2007,04,12,04,01,3.80
2007,04,12,04,02,3.70
2007,04,12,04,03,3.70
2007,04,12,04,04,3.60
2007,04,12,04,05,3.60
2007,04,12,04,06,3.60
2007,04,12,04,07,3.60
2007,04,12,04,08,3.60
2007,04,12,04,09,3.60
2007,04,12,04,10,3.70
2007,04,12,04,11,3.70
2007,04,12,04,12,3.70
2007,04,12,04,13,3.70
2007,04,12,04,14,3.60
2007,04,12,04,15,3.60
2007,04,12,04,16,3.60
2007,04,12,04,17,3.60
2007,04,12,04,18,3.60
2007,04,12,04,19,3.60
2007,04,12,04,20,3.60
2007,04,12,04,21,3.60
2007,04,12,04,22,3.60
2007,04,12,04,23,3.60
2007,04,12,04,24,3.60
2007,04,12,04,25,3.60
2007,04,12,04,26,3.60
2007,04,12,04,27,3.60
2007,04,12,04,28,3.70
2007,04,12,04,29,3.70
2007,04,12,04,30,3.70
2007,04,12,04,31,3.70
2007,04,12,04,32,3.80
2007,04,12,04,33,3.80
2007,04,12,04,34,3.80
2007,04,12,04,35,3.80
2007,04,12,04,36,3.90
2007,04,12,04,37,3.90
2007,04,12,04,38,3.90
2007,04,12,04,39,4.00
2007,04,12,04,40,4.00
2007,04,12,04,41,4.10
2007,04,12,04,42,4.20
2007,04,12,04,43,4.20
2007,04,12,04,44,4.20
2007,04,12,04,45,4.30
2007,04,12,04,46,4.40
2007,04,12,04,47,4.40
2007,04,12,04,48,4.50
2007,04,12,04,49,4.50
2007,04,12,04,50,4.50
2007,04,12,04,51,4.60
2007,04,12,04,52,4.60
2007,04,12,04,53,4.60
2007,04,12,04,54,4.70
2007,04,12,04,55,4.70
2007,04,12,04,56,4.80
2007,04,12,04,57,4.80
2007,04,12,04,58,4.80
2007,04,12,04,59,4.90
2007,04,12,05,00,4.90
2007,04,12,05,01,5.00
2007,04,12,05,02,5.10
2007,04,12,05,03,5.10
2007,04,12,05,04,5.10
2007,04,12,05,05,5.20
2007,04,12,05,06,5.20
2007,04,12,05,07,5.20
2007,04,12,05,08,5.30
2007,04,12,05,09,5.30
2007,04,12,05,10,5.30
2007,04,12,05,11,5.30
2007,04,12,05,12,5.30
2007,04,12,05,13,5.30
2007,04,12,05,14,5.30
2007,04,12,05,15,5.30
2007,04,12,05,16,5.30
2007,04,12,05,17,5.30
2007,04,12,05,18,5.30
2007,04,12,05,19,5.30
2007,04,12,05,20,5.40
2007,04,12,05,21,5.40
2007,04,12,05,22,5.40
2007,04,12,05,23,5.40
2007,04,12,05,24,5.40
2007,04,12,05,25,5.50
2007,04,12,05,26,5.50
2007,04,12,05,27,5.50
2007,04,12,05,28,5.50
2007,04,12,05,29,5.50
2007,04,12,05,30,5.50
2007,04,12,05,31,5.50
2007,04,12,05,32,5.50
2007,04,12,05,33,5.50
2007,04,12,05,34,5.50
2007,04,12,05,35,5.50
2007,04,12,05,36,5.50
2007,04,12,05,37,5.60
2007,04,12,05,38,5.50
2007,04,12,05,39,5.50
2007,04,12,05,40,5.50
2007,04,12,05,41,5.50
2007,04,12,05,42,5.50
2007,04,12,05,43,5.40
2007,04,12,05,44,5.40
2007,04,12,05,45,5.30
2007,04,12,05,46,5.30
2007,04,12,05,47,5.20
2007,04,12,05,48,5.10
2007,04,12,05,49,5.00
2007,04,12,05,50,4.90
2007,04,12,05,51,4.90
2007,04,12,05,52,4.80
2007,04,12,05,53,4.70
2007,04,12,05,54,4.60
2007,04,12,05,55,4.60
2007,04,12,05,56,4.60
2007,04,12,05,57,4.50
2007,04,12,05,58,4.50
2007,04,12,05,59,4.40
2007,04,12,06,00,4.40
2007,04,12,06,01,4.40
2007,04,12,06,02,4.40
2007,04,12,06,03,4.40
2007,04,12,06,04,4.40
2007,04,12,06,05,4.40
2007,04,12,06,06,4.40
2007,04,12,06,07,4.40
2007,04,12,06,08,4.50
2007,04,12,06,09,4.50
2007,04,12,06,10,4.50
2007,04,12,06,11,4.60
2007,04,12,06,12,4.60
2007,04,12,06,13,4.60
2007,04,12,06,14,4.70
2007,04,12,06,15,4.70
2007,04,12,06,16,4.80
2007,04,12,06,17,4.80
2007,04,12,06,18,4.80
2007,04,12,06,19,4.90
2007,04,12,06,20,4.90
2007,04,12,06,21,4.90
2007,04,12,06,22,4.90
2007,04,12,06,23,4.90
2007,04,12,06,24,4.90
2007,04,12,06,25,5.10
2007,04,12,06,26,5.10
2007,04,12,06,27,5.10
2007,04,12,06,28,5.10
2007,04,12,06,29,5.10
2007,04,12,06,30,5.10
2007,04,12,06,31,5.10
2007,04,12,06,32,5.10
2007,04,12,06,33,5.10
2007,04,12,06,34,5.10
2007,04,12,06,35,5.10
2007,04,12,06,36,5.10
2007,04,12,06,37,5.10
2007,04,12,06,38,5.10
2007,04,12,06,39,5.10
2007,04,12,06,40,5.10
2007,04,12,06,41,5.10
2007,04,12,06,42,5.20
2007,04,12,06,43,5.20
2007,04,12,06,44,5.30
2007,04,12,06,45,5.30
2007,04,12,06,46,5.30
2007,04,12,06,47,5.30
2007,04,12,06,48,5.30
2007,04,12,06,49,5.40
2007,04,12,06,50,5.40
2007,04,12,06,51,5.40
2007,04,12,06,52,5.40
2007,04,12,06,53,5.40
2007,04,12,06,54,5.30
2007,04,12,06,55,5.30
2007,04,12,06,56,5.30
2007,04,12,06,57,5.30
2007,04,12,06,58,5.30
2007,04,12,06,59,5.30
2007,04,12,07,00,5.30
2007,04,12,07,01,5.30
2007,04,12,07,02,5.30
2007,04,12,07,03,5.30
2007,04,12,07,04,5.30
2007,04,12,07,05,5.30
2007,04,12,07,06,5.30
2007,04,12,07,07,5.30
2007,04,12,07,08,5.30
2007,04,12,07,09,5.30
2007,04,12,07,10,5.30
2007,04,12,07,11,5.30
2007,04,12,07,12,5.30
2007,04,12,07,13,5.30
2007,04,12,07,14,5.30
2007,04,12,07,15,5.40
2007,04,12,07,16,5.40
2007,04,12,07,17,5.50
2007,04,12,07,18,5.60
2007,04,12,07,19,5.70
2007,04,12,07,20,5.80
2007,04,12,07,21,5.90
2007,04,12,07,22,6.00
2007,04,12,07,23,6.20
2007,04,12,07,24,6.30
2007,04,12,07,25,6.40
2007,04,12,07,26,6.50
2007,04,12,07,27,6.60
2007,04,12,07,28,6.60
2007,04,12,07,29,6.60
2007,04,12,07,30,6.60
2007,04,12,07,31,6.60
2007,04,12,07,32,6.60
2007,04,12,07,33,6.60
2007,04,12,07,34,6.60
2007,04,12,07,35,6.60
2007,04,12,07,36,6.50
2007,04,12,07,37,6.40
2007,04,12,07,38,6.40
2007,04,12,07,39,6.40
2007,04,12,07,40,6.40
2007,04,12,07,41,6.30
2007,04,12,07,42,6.30
2007,04,12,07,43,6.30
2007,04,12,07,44,6.30
2007,04,12,07,45,6.30
2007,04,12,07,46,6.30
2007,04,12,07,47,6.40
2007,04,12,07,48,6.40
2007,04,12,07,49,6.40
2007,04,12,07,50,6.60
2007,04,12,07,51,6.60
2007,04,12,07,52,6.60
2007,04,12,07,53,6.60
2007,04,12,07,54,6.70
2007,04,12,07,55,6.70
2007,04,12,07,56,6.70
2007,04,12,07,57,6.80
2007,04,12,07,58,6.80
2007,04,12,07,59,6.80
2007,04,12,08,00,6.90
2007,04,12,08,01,7.00
2007,04,12,08,02,7.10
2007,04,12,08,03,7.20
2007,04,12,08,04,7.20
2007,04,12,08,05,7.30
2007,04,12,08,06,7.30
2007,04,12,08,07,7.30
2007,04,12,08,08,7.40
2007,04,12,08,09,7.50
2007,04,12,08,10,7.50
2007,04,12,08,11,7.60
2007,04,12,08,12,7.60
2007,04,12,08,13,7.70
2007,04,12,08,14,7.80
2007,04,12,08,15,7.80
2007,04,12,08,16,7.80
2007,04,12,08,17,7.90
2007,04,12,08,18,7.90
2007,04,12,08,19,8.00
2007,04,12,08,20,8.10
2007,04,12,08,21,8.20
2007,04,12,08,22,8.20
2007,04,12,08,23,8.20
2007,04,12,08,24,8.30
2007,04,12,08,25,8.40
2007,04,12,08,26,8.40
2007,04,12,08,27,8.50
2007,04,12,08,28,8.60
2007,04,12,08,29,8.70
2007,04,12,08,30,8.70
2007,04,12,08,31,8.70
2007,04,12,08,32,8.80
2007,04,12,08,33,8.90
2007,04,12,08,34,8.90
2007,04,12,08,35,9.00
2007,04,12,08,36,9.10
2007,04,12,08,37,9.10
2007,04,12,08,38,9.20
2007,04,12,08,39,9.20
2007,04,12,08,40,9.20
2007,04,12,08,41,9.20
2007,04,12,08,42,9.20
2007,04,12,08,43,9.20
2007,04,12,08,44,9.20
2007,04,12,08,45,9.20
2007,04,12,08,46,9.20
2007,04,12,08,47,9.20
2007,04,12,08,48,9.20
2007,04,12,08,49,9.20
2007,04,12,08,50,9.20
2007,04,12,08,51,9.20
2007,04,12,08,52,9.20
2007,04,12,08,53,9.10
2007,04,12,08,54,9.10
2007,04,12,08,55,9.10
2007,04,12,08,56,9.00
2007,04,12,08,57,9.10
2007,04,12,08,58,9.10
2007,04,12,08,59,9.10
2007,04,12,09,00,9.10
2007,04,12,09,01,9.20
2007,04,12,09,02,9.20
2007,04,12,09,03,9.20
2007,04,12,09,04,9.20
2007,04,12,09,05,9.20
2007,04,12,09,06,9.20
2007,04,12,09,07,9.20
2007,04,12,09,08,9.20
2007,04,12,09,09,9.20
2007,04,12,09,10,9.20
2007,04,12,09,11,9.10
2007,04,12,09,12,9.10
2007,04,12,09,13,9.10
2007,04,12,09,14,9.10
2007,04,12,09,15,9.10
2007,04,12,09,16,9.10
2007,04,12,09,17,9.10
2007,04,12,09,18,9.10
2007,04,12,09,19,9.10
2007,04,12,09,20,9.10
2007,04,12,09,21,9.00
2007,04,12,09,22,9.00
2007,04,12,09,23,9.00
2007,04,12,09,24,8.90
2007,04,12,09,25,8.90
2007,04,12,09,26,8.90
2007,04,12,09,27,8.80
2007,04,12,09,28,8.80
2007,04,12,09,29,8.80
2007,04,12,09,30,8.80
2007,04,12,09,31,8.80
2007,04,12,09,32,8.80
2007,04,12,09,33,8.80
2007,04,12,09,34,8.80
2007,04,12,09,35,8.80
2007,04,12,09,36,8.80
2007,04,12,09,37,8.80
2007,04,12,09,38,8.70
2007,04,12,09,39,8.70
2007,04,12,09,40,8.70
2007,04,12,09,41,8.70
2007,04,12,09,42,8.70
2007,04,12,09,43,8.70
2007,04,12,09,44,8.70
2007,04,12,09,45,8.60
2007,04,12,09,46,8.60
2007,04,12,09,47,8.60
2007,04,12,09,48,8.60
2007,04,12,09,49,8.60
2007,04,12,09,50,8.50
2007,04,12,09,51,8.50
2007,04,12,09,52,8.50
2007,04,12,09,53,8.40
2007,04,12,09,54,8.40
2007,04,12,09,55,8.40
2007,04,12,09,56,8.40
2007,04,12,09,57,8.40
2007,04,12,09,58,8.40
2007,04,12,09,59,8.40
2007,04,12,10,00,8.40
2007,04,12,10,01,8.40
2007,04,12,10,02,8.40
2007,04,12,10,03,8.30
2007,04,12,10,04,8.30
2007,04,12,10,05,8.30
2007,04,12,10,06,8.30
2007,04,12,10,07,8.30
2007,04,12,10,08,8.30
2007,04,12,10,09,8.30
2007,04,12,10,10,8.30
2007,04,12,10,11,8.30
2007,04,12,10,12,8.30
2007,04,12,10,13,8.30
2007,04,12,10,14,8.30
2007,04,12,10,15,8.30
2007,04,12,10,16,8.30
2007,04,12,10,17,8.40
2007,04,12,10,18,8.40
2007,04,12,10,19,8.40
2007,04,12,10,20,8.30
2007,04,12,10,21,8.30
2007,04,12,10,22,8.30
2007,04,12,10,23,8.30
2007,04,12,10,24,8.30
2007,04,12,10,25,8.30
2007,04,12,10,26,8.30
2007,04,12,10,27,8.30
2007,04,12,10,28,8.30
2007,04,12,10,29,8.30
2007,04,12,10,30,8.30
2007,04,12,10,31,8.40
2007,04,12,10,32,8.40
2007,04,12,10,33,8.40
2007,04,12,10,34,8.40
2007,04,12,10,35,8.40
2007,04,12,10,36,8.40
2007,04,12,10,37,8.40
2007,04,12,10,38,8.40
2007,04,12,10,39,8.40
2007,04,12,10,40,8.40
2007,04,12,10,41,8.40
2007,04,12,10,42,8.50
2007,04,12,10,43,8.50
2007,04,12,10,44,8.50
2007,04,12,10,45,8.50
2007,04,12,10,46,8.50
2007,04,12,10,47,8.50
2007,04,12,10,48,8.60
2007,04,12,10,49,8.60
2007,04,12,10,50,8.60
2007,04,12,10,51,8.60
2007,04,12,10,52,8.60
2007,04,12,10,53,8.60
2007,04,12,10,54,8.60
2007,04,12,10,55,8.70
2007,04,12,10,56,8.70
2007,04,12,10,57,8.70
2007,04,12,10,58,8.70
2007,04,12,10,59,8.70
2007,04,12,11,00,8.70
2007,04,12,11,01,8.70
2007,04,12,11,02,8.70
2007,04,12,11,03,8.70
2007,04,12,11,04,8.70
2007,04,12,11,05,8.80
2007,04,12,11,06,8.80
2007,04,12,11,07,8.80
2007,04,12,11,08,8.80
2007,04,12,11,09,8.80
2007,04,12,11,10,8.80
2007,04,12,11,11,8.90
2007,04,12,11,12,8.90
2007,04,12,11,13,8.90
2007,04,12,11,14,8.90
2007,04,12,11,15,8.90
2007,04,12,11,16,8.90
2007,04,12,11,17,9.00
2007,04,12,11,18,9.10
2007,04,12,11,19,9.10
2007,04,12,11,20,9.20
2007,04,12,11,21,9.20
2007,04,12,11,22,9.20
2007,04,12,11,23,9.30
2007,04,12,11,24,9.30
2007,04,12,11,25,9.40
2007,04,12,11,26,9.30
2007,04,12,11,27,9.30
2007,04,12,11,28,9.30
2007,04,12,11,29,9.30
2007,04,12,11,30,9.30
2007,04,12,11,31,9.40
2007,04,12,11,32,9.40
2007,04,12,11,33,9.40
2007,04,12,11,34,9.50
2007,04,12,11,35,9.60
2007,04,12,11,36,9.60
2007,04,12,11,37,9.60
2007,04,12,11,38,9.60
2007,04,12,11,39,9.70
2007,04,12,11,40,9.70
2007,04,12,11,41,9.60
2007,04,12,11,42,9.60
2007,04,12,11,43,9.70
2007,04,12,11,44,9.70
2007,04,12,11,45,9.70
2007,04,12,11,46,9.70
2007,04,12,11,47,9.70
2007,04,12,11,48,9.70
2007,04,12,11,49,9.60
2007,04,12,11,50,9.60
2007,04,12,11,51,9.60
2007,04,12,11,52,9.70
2007,04,12,11,53,9.70
2007,04,12,11,54,9.70
2007,04,12,11,55,9.70
2007,04,12,11,56,9.70
2007,04,12,11,57,9.70
2007,04,12,11,58,9.70
2007,04,12,11,59,9.70
2007,04,12,12,00,9.60
2007,04,12,12,01,9.70
2007,04,12,12,02,9.70
2007,04,12,12,03,9.70
2007,04,12,12,04,9.70
2007,04,12,12,05,9.70
2007,04,12,12,06,9.60
2007,04,12,12,07,9.60
2007,04,12,12,08,9.60
2007,04,12,12,09,9.60
2007,04,12,12,10,9.50
2007,04,12,12,11,9.50
2007,04,12,12,12,9.40
2007,04,12,12,13,9.40
2007,04,12,12,14,9.40
2007,04,12,12,15,9.40
2007,04,12,12,16,9.40
2007,04,12,12,17,9.40
2007,04,12,12,18,9.30
2007,04,12,12,19,9.30
2007,04,12,12,20,9.30
2007,04,12,12,21,9.30
2007,04,12,12,22,9.30
2007,04,12,12,23,9.30
2007,04,12,12,24,9.30
2007,04,12,12,25,9.30
2007,04,12,12,26,9.20
2007,04,12,12,27,9.20
2007,04,12,12,28,9.30
2007,04,12,12,29,9.30
2007,04,12,12,30,9.30
2007,04,12,12,31,9.30
2007,04,12,12,32,9.30
2007,04,12,12,33,9.30
2007,04,12,12,34,9.30
2007,04,12,12,35,9.30
2007,04,12,12,36,9.40
2007,04,12,12,37,9.40
2007,04,12,12,38,9.40
2007,04,12,12,39,9.50
2007,04,12,12,40,9.50
2007,04,12,12,41,9.50
2007,04,12,12,42,9.50
2007,04,12,12,43,9.50
2007,04,12,12,44,9.50
2007,04,12,12,45,9.60
2007,04,12,12,46,9.60
2007,04,12,12,47,9.60
2007,04,12,12,48,9.60
2007,04,12,12,49,9.60
2007,04,12,12,50,9.60
2007,04,12,12,51,9.60
2007,04,12,12,52,9.70
2007,04,12,12,53,9.70
2007,04,12,12,54,9.70
2007,04,12,12,55,9.70
2007,04,12,12,56,9.70
2007,04,12,12,57,9.70
2007,04,12,12,58,9.70
2007,04,12,12,59,9.70
2007,04,12,13,00,9.70
2007,04,12,13,01,9.70
2007,04,12,13,02,9.70
2007,04,12,13,03,9.80
2007,04,12,13,04,9.80
2007,04,12,13,05,9.80
2007,04,12,13,06,9.90
2007,04,12,13,07,9.80
2007,04,12,13,08,9.80
2007,04,12,13,09,9.80
2007,04,12,13,10,9.80
2007,04,12,13,11,9.90
2007,04,12,13,12,9.90
2007,04,12,13,13,9.90
2007,04,12,13,14,9.90
2007,04,12,13,15,9.90
2007,04,12,13,16,9.90
2007,04,12,13,17,10.00
2007,04,12,13,18,10.10
2007,04,12,13,19,10.10
2007,04,12,13,20,10.20
2007,04,12,13,21,10.20
2007,04,12,13,22,10.20
2007,04,12,13,23,10.30
2007,04,12,13,24,10.30
2007,04,12,13,25,10.40
2007,04,12,13,26,10.40
2007,04,12,13,27,10.40
2007,04,12,13,28,10.40
2007,04,12,13,29,10.40
2007,04,12,13,30,10.40
2007,04,12,13,31,10.50
2007,04,12,13,32,10.60
2007,04,12,13,33,10.60
2007,04,12,13,34,10.60
2007,04,12,13,35,10.60
2007,04,12,13,36,10.70
2007,04,12,13,37,10.70
2007,04,12,13,38,10.70
2007,04,12,13,39,10.80
2007,04,12,13,40,10.70
2007,04,12,13,41,10.70
2007,04,12,13,42,10.60
2007,04,12,13,43,10.60
2007,04,12,13,44,10.70
2007,04,12,13,45,10.70
2007,04,12,13,46,10.70
2007,04,12,13,47,10.70
2007,04,12,13,48,10.80
2007,04,12,13,49,10.90
2007,04,12,13,50,10.90
2007,04,12,13,51,11.10
2007,04,12,13,52,11.10
2007,04,12,13,53,11.20
2007,04,12,13,54,11.30
2007,04,12,13,55,11.30
2007,04,12,13,56,11.30
2007,04,12,13,57,11.40
2007,04,12,13,58,11.40
2007,04,12,13,59,11.50
2007,04,12,14,00,11.70
2007,04,12,14,01,11.90
2007,04,12,14,02,12.10
2007,04,12,14,03,12.30
2007,04,12,14,04,12.50
2007,04,12,14,05,12.50
2007,04,12,14,06,12.60
2007,04,12,14,07,12.60
2007,04,12,14,08,12.60
2007,04,12,14,09,12.40
2007,04,12,14,10,12.30
2007,04,12,14,11,12.30
2007,04,12,14,12,12.20
2007,04,12,14,13,12.20
2007,04,12,14,14,12.20
2007,04,12,14,15,12.20
2007,04,12,14,16,12.30
2007,04,12,14,17,12.40
2007,04,12,14,18,12.40
2007,04,12,14,19,12.40
2007,04,12,14,20,12.50
2007,04,12,14,21,12.70
2007,04,12,14,22,12.80
2007,04,12,14,23,12.70
2007,04,12,14,24,12.70
2007,04,12,14,25,12.60
2007,04,12,14,26,12.50
2007,04,12,14,27,12.40
2007,04,12,14,28,12.40
2007,04,12,14,29,12.60
2007,04,12,14,30,12.70
2007,04,12,14,31,12.70
2007,04,12,14,32,12.70
2007,04,12,14,33,12.80
2007,04,12,14,34,12.80
2007,04,12,14,35,12.90
2007,04,12,14,36,12.80
2007,04,12,14,37,12.80
2007,04,12,14,38,12.80
2007,04,12,14,39,12.80
2007,04,12,14,40,12.80
2007,04,12,14,41,12.80
2007,04,12,14,42,12.80
2007,04,12,14,43,12.80
2007,04,12,14,44,12.80
2007,04,12,14,45,12.80
2007,04,12,14,46,12.80
2007,04,12,14,47,12.80
2007,04,12,14,48,12.80
2007,04,12,14,49,12.70
2007,04,12,14,50,12.50
2007,04,12,14,51,12.50
2007,04,12,14,52,12.50
2007,04,12,14,53,12.60
2007,04,12,14,54,12.70
2007,04,12,14,55,12.60
2007,04,12,14,56,12.50
2007,04,12,14,57,12.50
2007,04,12,14,58,12.60
2007,04,12,14,59,12.70
2007,04,12,15,00,12.70
2007,04,12,15,01,12.70
2007,04,12,15,02,12.60
2007,04,12,15,03,12.50
2007,04,12,15,04,12.50
2007,04,12,15,05,12.40
2007,04,12,15,06,12.30
2007,04,12,15,07,12.30
2007,04,12,15,08,12.40
2007,04,12,15,09,12.50
2007,04,12,15,10,12.60
2007,04,12,15,11,12.70
2007,04,12,15,12,12.80
2007,04,12,15,13,12.80
2007,04,12,15,14,12.80
2007,04,12,15,15,12.90
2007,04,12,15,16,12.90
2007,04,12,15,17,13.10
2007,04,12,15,18,13.20
2007,04,12,15,19,13.20
2007,04,12,15,20,13.20
2007,04,12,15,21,13.20
2007,04,12,15,22,13.20
2007,04,12,15,23,13.00
2007,04,12,15,24,13.00
2007,04,12,15,25,12.80
2007,04,12,15,26,12.80
2007,04,12,15,27,12.80
2007,04,12,15,28,12.80
2007,04,12,15,29,12.80
2007,04,12,15,30,12.80
2007,04,12,15,31,12.80
2007,04,12,15,32,12.80
2007,04,12,15,33,12.80
2007,04,12,15,34,12.80
2007,04,12,15,35,12.80
2007,04,12,15,36,12.90
2007,04,12,15,37,12.90
2007,04,12,15,38,12.80
2007,04,12,15,39,12.80
2007,04,12,15,40,12.80
2007,04,12,15,41,12.80
2007,04,12,15,42,12.70
2007,04,12,15,43,12.70
2007,04,12,15,44,12.60
2007,04,12,15,45,12.60
2007,04,12,15,46,12.60
2007,04,12,15,47,12.60
2007,04,12,15,48,12.60
2007,04,12,15,49,12.60
2007,04,12,15,50,12.60
2007,04,12,15,51,12.70
2007,04,12,15,52,12.70
2007,04,12,15,53,12.70
2007,04,12,15,54,12.60
2007,04,12,15,55,12.60
2007,04,12,15,56,12.60
2007,04,12,15,57,12.40
2007,04,12,15,58,12.30
2007,04,12,15,59,12.30
2007,04,12,16,00,12.30
2007,04,12,16,01,12.30
2007,04,12,16,02,12.30
2007,04,12,16,03,12.30
2007,04,12,16,04,12.40
2007,04,12,16,05,12.40
2007,04,12,16,06,12.40
2007,04,12,16,07,12.40
2007,04,12,16,08,12.40
2007,04,12,16,09,12.30
2007,04,12,16,10,12.10
2007,04,12,16,11,12.10
2007,04,12,16,12,12.10
2007,04,12,16,13,12.00
2007,04,12,16,14,11.90
2007,04,12,16,15,11.90
2007,04,12,16,16,11.90
2007,04,12,16,17,11.90
2007,04,12,16,18,11.90
2007,04,12,16,19,11.80
2007,04,12,16,20,11.80
2007,04,12,16,21,11.80
2007,04,12,16,22,11.80
2007,04,12,16,23,11.80
2007,04,12,16,24,11.80
2007,04,12,16,25,11.80
2007,04,12,16,26,11.80
2007,04,12,16,27,11.80
2007,04,12,16,28,11.80
2007,04,12,16,29,11.80
2007,04,12,16,30,11.70
2007,04,12,16,31,11.70
2007,04,12,16,32,11.60
2007,04,12,16,33,11.60
2007,04,12,16,34,11.50
2007,04,12,16,35,11.50
2007,04,12,16,36,11.60
2007,04,12,16,37,11.60
2007,04,12,16,38,11.60
2007,04,12,16,39,11.60
2007,04,12,16,40,11.70
2007,04,12,16,41,11.80
2007,04,12,16,42,11.80
2007,04,12,16,43,11.80
2007,04,12,16,44,11.80
2007,04,12,16,45,11.80
2007,04,12,16,46,11.80
2007,04,12,16,47,11.80
2007,04,12,16,48,11.80
2007,04,12,16,49,11.80
2007,04,12,16,50,11.80
2007,04,12,16,51,11.70
2007,04,12,16,52,11.60
2007,04,12,16,53,11.60
2007,04,12,16,54,11.60
2007,04,12,16,55,11.60
2007,04,12,16,56,11.60
2007,04,12,16,57,11.60
2007,04,12,16,58,11.50
2007,04,12,16,59,11.40
2007,04,12,17,00,11.40
2007,04,12,17,01,11.40
2007,04,12,17,02,11.40
2007,04,12,17,03,11.40
2007,04,12,17,04,11.40
2007,04,12,17,05,11.40
2007,04,12,17,06,11.40
2007,04,12,17,07,11.40
2007,04,12,17,08,11.40
2007,04,12,17,09,11.40
2007,04,12,17,10,11.30
2007,04,12,17,11,11.30
2007,04,12,17,12,11.20
2007,04,12,17,13,11.20
2007,04,12,17,14,11.20
2007,04,12,17,15,11.10
2007,04,12,17,16,11.10
2007,04,12,17,17,11.00
2007,04,12,17,18,10.90
2007,04,12,17,19,10.90
2007,04,12,17,20,10.90
2007,04,12,17,21,10.80
2007,04,12,17,22,10.80
2007,04,12,17,23,10.80
2007,04,12,17,24,10.80
2007,04,12,17,25,10.80
2007,04,12,17,26,10.70
2007,04,12,17,27,10.60
2007,04,12,17,28,10.60
2007,04,12,17,29,10.60
2007,04,12,17,30,10.60
2007,04,12,17,31,10.70
2007,04,12,17,32,10.60
2007,04,12,17,33,10.60
2007,04,12,17,34,10.60
2007,04,12,17,35,10.60
2007,04,12,17,36,10.60
2007,04,12,17,37,10.70
2007,04,12,17,38,10.70
2007,04,12,17,39,10.70
2007,04,12,17,40,10.60
2007,04,12,17,41,10.70
2007,04,12,17,42,10.70
2007,04,12,17,43,10.80
2007,04,12,17,44,10.90
2007,04,12,17,45,10.90
2007,04,12,17,46,10.90
2007,04,12,17,47,10.90
2007,04,12,17,48,10.90
2007,04,12,17,49,10.90
2007,04,12,17,50,10.90
2007,04,12,17,51,10.80
2007,04,12,17,52,10.80
2007,04,12,17,53,10.70
2007,04,12,17,54,10.80